Weather History for St. Joseph, MO

Change the Weather History Date:

Saturday, March 10, 2012

  Actual Average Record
Temperature  
Mean Temperature 51 °F 40 °F  
Max Temperature 67 °F 52 °F 85 °F (1967)
Min Temperature 34 °F 29 °F -1 °F (1948)
Degree Days  
Heating Degree Days 14 25  
Month to date heating degree days 197 266  
Since 1 July heating degree days 3914 4574  
Cooling Degree Days 0 0  
Month to date cooling degree days 0 0  
Year to date cooling degree days 0 0  
Moisture  
Dew Point 30 °F    
Average Humidity 53    
Maximum Humidity 82    
Minimum Humidity 24    
Precipitation  
Precipitation 0.00 in 0.07 in 1.55 in (1901)
Month to date precipitation 0.16 0.59  
Year to date precipitation 2.62 2.08  
Sea Level Pressure  
Sea Level Pressure 30.26 in    
Wind  
Wind Speed 9 mph (South)    
Max Wind Speed 23 mph    
Max Gust Speed 32 mph    
Visibility 10 miles    
Events      
T = Trace of Precipitation, MM = Missing Value Source: NWS Daily Summary

Daily Weather History Graph

Daily Weather History Graph

Search for Another Location

Airport:

Trip Planner

Search our weather history database for the weather conditions in past years. The results will help you decide how hot, cold, wet, or windy it might be!

Date:

Astronomy

Mar. 10, 2012 Rise Set
Actual Time 6:38 AM CST 6:21 PM CST
Civil Twilight 6:11 AM CST 6:48 PM CST
Nautical Twilight 5:40 AM CST 7:20 PM CST
Astronomical Twilight 5:08 AM CST 7:51 PM CST
Moon 9:34 PM CST (3/10) 7:34 AM CST (3/10)
Length of Visible Light 12h 37m
Length of Day
11h 43m
Waning Gibbous, 92% of the Moon is Illuminated
Mar 10
Waning Gibbous
Mar 14
Last Quarter
Mar 22
New
Mar 30
First Quarter
Apr 6
Full

Hourly Weather History & Observations

Time (CST) Temp. Windchill Dew Point Humidity Pressure Visibility Wind Dir Wind Speed Gust Speed Precip Events Conditions
12:53 AM 39.9 °F 36.7 °F 28.0 °F 63% 30.39 in 10.0 mi South 4.6 mph - N/A   Clear
1:53 AM 39.9 °F 37.8 °F 28.9 °F 65% 30.38 in 10.0 mi SSE 3.5 mph - N/A   Clear
2:53 AM 36.0 °F - 30.0 °F 79% 30.36 in 10.0 mi Calm Calm - N/A   Clear
3:53 AM 36.0 °F 33.3 °F 28.0 °F 73% 30.35 in 10.0 mi South 3.5 mph - N/A   Clear
4:53 AM 36.0 °F - 28.9 °F 76% 30.34 in 10.0 mi Calm Calm - N/A   Clear
5:53 AM 35.6 °F - 30.2 °F 81% 30.33 in 10.0 mi Calm Calm - N/A   Clear
6:53 AM 34.0 °F 31.0 °F 28.9 °F 82% 30.35 in 10.0 mi South 3.5 mph - N/A   Clear
7:53 AM 39.9 °F 37.8 °F 32.0 °F 73% 30.36 in 10.0 mi SSE 3.5 mph - N/A   Clear
8:53 AM 46.9 °F - 30.0 °F 52% 30.36 in 10.0 mi SSW 9.2 mph - N/A   Clear
9:53 AM 54.0 °F - 30.0 °F 40% 30.34 in 10.0 mi SSW 10.4 mph - N/A   Clear
10:53 AM 60.1 °F - 30.0 °F 32% 30.32 in 10.0 mi SSW 16.1 mph - N/A   Clear
11:53 AM 63.0 °F - 28.0 °F 27% 30.29 in 10.0 mi SSW 16.1 mph - N/A   Clear
12:53 PM 64.9 °F - 28.9 °F 26% 30.26 in 10.0 mi SSW 17.3 mph 26.5 mph N/A   Clear
1:53 PM 66.0 °F - 28.0 °F 24% 30.21 in 10.0 mi SW 20.7 mph 24.2 mph N/A   Clear
2:53 PM 66.9 °F - 28.9 °F 24% 30.18 in 10.0 mi SSW 19.6 mph - N/A   Clear
3:53 PM 66.0 °F - 28.0 °F 24% 30.17 in 10.0 mi South 18.4 mph - N/A   Clear
4:53 PM 64.9 °F - 28.9 °F 26% 30.15 in 10.0 mi SSW 17.3 mph - N/A   Clear
5:53 PM 61.0 °F - 32.0 °F 34% 30.15 in 10.0 mi South 16.1 mph - N/A   Clear
6:53 PM 55.9 °F - 32.0 °F 40% 30.17 in 10.0 mi South 9.2 mph - N/A   Clear
7:53 PM 51.1 °F - 33.1 °F 50% 30.17 in 10.0 mi South 9.2 mph - N/A   Clear
8:53 PM 46.9 °F - 32.0 °F 56% 30.17 in 10.0 mi South 5.8 mph - N/A   Clear
9:53 PM 46.0 °F 44.8 °F 33.1 °F 61% 30.16 in 10.0 mi South 3.5 mph - N/A   Clear
10:53 PM 39.0 °F - 30.9 °F 73% 30.16 in 10.0 mi Calm Calm - N/A   Clear
11:53 PM 43.0 °F 40.3 °F 35.1 °F 74% 30.15 in 10.0 mi SSE 4.6 mph - N/A   Clear